Plum, TX

10:09 AM CST on February 09, 2016 (GMT -0600)
La Grange

Weather History for K3T5 - September, 2013

Change the Weather History Date:

Wednesday, September 18, 2013

  Actual Average (KAUS) Record (KAUS)
Temperature  
Mean Temperature 84 °F 77 °F  
Max Temperature 96 °F 90 °F 99 °F (1956)
Min Temperature 73 °F 65 °F 48 °F (2000)
Degree Days  
Heating Degree Days 0 0  
Month to date heating degree days 0  
Since 1 July heating degree days 0  
Cooling Degree Days 20 12  
Month to date cooling degree days 261  
Year to date cooling degree days 2401  
Growing Degree Days 34 (Base 50)    
Moisture  
Dew Point 73 °F    
Average Humidity 70    
Maximum Humidity 94    
Minimum Humidity 40    
Precipitation  
Precipitation 0.00 in 0.08 in 2.02 in (1983)
Month to date precipitation 1.58  
Year to date precipitation 24.29  
Snow  
Snow 0.00 in - - ()
Month to date snowfall  
Since 1 July snowfall  
Since 1 September snowfall  
Snow Depth -    
Sea Level Pressure  
Sea Level Pressure 29.94 in    
Wind  
Wind Speed 3 mph (SE)    
Max Wind Speed 12 mph    
Max Gust Speed 18 mph    
Visibility 10 miles    
Events      
T = Trace of Precipitation, MM = Missing Value Source: NWS Daily Summary

Daily Weather History Graph

Daily Weather History Graph

Search for Another Location

Airport or City:

Trip Planner

Search our weather history database for the weather conditions in past years. The results will help you decide how hot, cold, wet, or windy it might be!

Date:

Astronomy

Sep. 18, 2013 Rise Set
Actual Time 7:14 AM CDT 7:28 PM CDT
Civil Twilight 6:50 AM CDT 7:52 PM CDT
Nautical Twilight 6:22 AM CDT 8:20 PM CDT
Astronomical Twilight 5:54 AM CDT 8:48 PM CDT
Moon 6:54 PM CDT (9/18) 6:19 AM CDT (9/18)
Length of Visible Light 13h 02m
Length of Day
12h 14m
Waxing Gibbous, 99% of the Moon is Illuminated
Sep 18
Waxing Gibbous
Sep 19
Full
Sep 26
Last Quarter
Oct 4
New
Oct 11
First Quarter

Hourly Weather History & Observations

Time (CDT) Temp. Heat Index Dew Point Humidity Pressure Visibility Wind Dir Wind Speed Gust Speed Precip Events Conditions
12:15 AM 80.8 °F 87.1 °F 76.1 °F 86% 29.99 in 10.0 mi Calm Calm - N/A   Clear
12:35 AM 79.9 °F - 75.9 °F 88% 29.99 in 10.0 mi Calm Calm - N/A   Clear
12:55 AM 79.5 °F - 75.4 °F 87% 29.99 in 10.0 mi Calm Calm - N/A   Clear
1:15 AM 78.8 °F - 75.2 °F 89% 29.99 in 10.0 mi Calm Calm - N/A   Clear
1:35 AM 79.0 °F - 75.2 °F 88% 29.99 in 10.0 mi Calm Calm - N/A   Clear
1:55 AM 78.6 °F - 75.4 °F 90% 29.99 in 10.0 mi Calm Calm - N/A   Clear
2:15 AM 77.7 °F - 74.7 °F 90% 29.99 in 10.0 mi Calm Calm - N/A   Clear
2:35 AM 77.4 °F - 74.7 °F 91% 29.98 in 10.0 mi Calm Calm - N/A   Clear
2:55 AM 77.0 °F - 73.9 °F 90% 29.98 in 10.0 mi Calm Calm - N/A   Clear
3:15 AM 76.6 °F - 73.9 °F 91% 29.97 in 10.0 mi Calm Calm - N/A   Clear
3:35 AM 76.3 °F - 73.9 °F 92% 29.96 in 10.0 mi Calm Calm - N/A   Clear
3:55 AM 75.7 °F - 73.4 °F 92% 29.96 in 10.0 mi Calm Calm - N/A   Clear
4:15 AM 75.2 °F - 72.9 °F 92% 29.95 in 10.0 mi Calm Calm - N/A   Clear
4:35 AM 74.8 °F - 72.7 °F 93% 29.95 in 10.0 mi Calm Calm - N/A   Clear
4:55 AM 74.5 °F - 72.5 °F 94% 29.95 in 10.0 mi Calm Calm - N/A   Clear
5:15 AM 74.8 °F - 72.7 °F 93% 29.95 in 10.0 mi Calm Calm - N/A   Clear
5:35 AM 74.8 °F - 72.7 °F 93% 29.94 in 10.0 mi Calm Calm - N/A   Clear
5:55 AM 74.7 °F - 72.5 °F 93% 29.94 in 10.0 mi Calm Calm - N/A   Clear
6:15 AM 74.8 °F - 72.7 °F 93% 29.95 in 10.0 mi Calm Calm - N/A   Clear
6:35 AM 74.5 °F - 72.3 °F 93% 29.95 in 10.0 mi Calm Calm - N/A   Clear
6:55 AM 74.3 °F - 72.5 °F 94% 29.96 in 10.0 mi Calm Calm - N/A   Clear
7:15 AM 74.1 °F - 72.3 °F 94% 29.96 in 4.0 mi Calm Calm - N/A   Clear
7:35 AM 73.6 °F - 71.8 °F 94% 29.96 in 7.0 mi Calm Calm - N/A   Clear
7:55 AM 75.0 °F - 73.2 °F 94% 29.97 in 7.0 mi Calm Calm - N/A   Scattered Clouds
8:15 AM 76.3 °F - 74.3 °F 94% 29.98 in 7.0 mi Calm Calm - N/A   Mostly Cloudy
8:35 AM 77.4 °F - 75.2 °F 93% 29.99 in 3.0 mi Calm Calm - N/A   Overcast
8:55 AM 78.8 °F - 76.1 °F 91% 29.99 in 5.0 mi East 3.5 mph - N/A   Scattered Clouds
9:15 AM 81.0 °F 87.9 °F 77.2 °F 88% 29.99 in 10.0 mi East 3.5 mph - N/A   Mostly Cloudy
9:35 AM 82.4 °F 91.5 °F 77.7 °F 86% 30.00 in 10.0 mi ESE 3.5 mph - N/A   Mostly Cloudy
9:55 AM 84.4 °F 94.2 °F 77.0 °F 78% 30.00 in 10.0 mi ESE 6.9 mph - N/A   Mostly Cloudy
10:15 AM 85.3 °F 94.6 °F 75.7 °F 73% 30.00 in 10.0 mi East 6.9 mph - N/A   Scattered Clouds
10:35 AM 87.1 °F 96.8 °F 75.2 °F 68% 30.00 in 10.0 mi ESE 6.9 mph - N/A   Scattered Clouds
10:55 AM 88.2 °F 96.9 °F 74.3 °F 63% 30.00 in 10.0 mi East 8.1 mph - N/A   Scattered Clouds
11:15 AM 88.7 °F 96.7 °F 73.4 °F 60% 30.00 in 10.0 mi ESE 6.9 mph - N/A   Scattered Clouds
11:35 AM 88.3 °F 95.9 °F 73.0 °F 60% 29.99 in 10.0 mi SE 5.8 mph - N/A   Scattered Clouds
11:55 AM 91.2 °F 99.1 °F 72.3 °F 54% 29.99 in 10.0 mi South 8.1 mph - N/A   Mostly Cloudy
12:15 PM 91.8 °F 99.1 °F 71.6 °F 52% 29.98 in 10.0 mi ESE 6.9 mph - N/A   Mostly Cloudy
12:35 PM 91.0 °F 97.1 °F 70.7 °F 51% 29.97 in 10.0 mi ESE 6.9 mph - N/A   Scattered Clouds
12:55 PM 93.9 °F 100.3 °F 70.2 °F 46% 29.96 in 10.0 mi ESE 6.9 mph - N/A   Scattered Clouds
1:15 PM 93.2 °F 99.4 °F 70.0 °F 47% 29.95 in 10.0 mi SE 5.8 mph - N/A   Scattered Clouds
1:35 PM 94.1 °F 99.5 °F 68.9 °F 44% 29.94 in 10.0 mi ESE 8.1 mph - N/A   Scattered Clouds
1:55 PM 93.9 °F 99.1 °F 69.1 °F 44% 29.94 in 10.0 mi SSE 8.1 mph - N/A   Clear
2:15 PM 95.4 °F 100.8 °F 68.9 °F 42% 29.93 in 10.0 mi SSE 9.2 mph - N/A   Clear
2:35 PM 94.5 °F 100.8 °F 70.3 °F 45% 29.92 in 10.0 mi SE 10.4 mph - N/A   Scattered Clouds
2:55 PM 94.1 °F 101.8 °F 71.6 °F 48% 29.91 in 10.0 mi ESE 10.4 mph - N/A   Clear
3:15 PM 95.7 °F 102.1 °F 70.2 °F 43% 29.90 in 10.0 mi South 9.2 mph 16.1 mph N/A   Scattered Clouds
3:35 PM 95.2 °F 102.9 °F 71.2 °F 46% 29.90 in 10.0 mi SSE 6.9 mph - N/A   Scattered Clouds
3:55 PM 96.3 °F 103.9 °F 70.9 °F 44% 29.89 in 10.0 mi SE 8.1 mph - N/A   Scattered Clouds
4:15 PM 96.6 °F 102.1 °F 68.5 °F 40% 29.88 in 10.0 mi ESE 11.5 mph - N/A   Clear
4:35 PM 95.9 °F 101.3 °F 68.9 °F 41% 29.88 in 10.0 mi SE 6.9 mph - N/A   Clear
4:55 PM 95.2 °F 101.0 °F 69.6 °F 43% 29.87 in 10.0 mi SSE 9.2 mph - N/A   Scattered Clouds
5:15 PM 94.6 °F 101.8 °F 70.7 °F 46% 29.87 in 10.0 mi SSE 6.9 mph - N/A   Scattered Clouds
5:35 PM 94.6 °F 101.8 °F 71.1 °F 46% 29.86 in 10.0 mi SE 9.2 mph - N/A   Clear
5:55 PM 95.2 °F 102.3 °F 70.5 °F 45% 29.86 in 10.0 mi SSE 9.2 mph - N/A   Clear
6:15 PM 95.2 °F 101.7 °F 70.0 °F 44% 29.86 in 10.0 mi SSE 11.5 mph - N/A   Clear
6:35 PM 94.1 °F 100.0 °F 70.0 °F 45% 29.86 in 10.0 mi SSE 8.1 mph - N/A   Clear
6:55 PM 93.2 °F 101.1 °F 71.8 °F 50% 29.87 in 10.0 mi SE 9.2 mph - N/A   Clear
7:15 PM 92.1 °F 101.1 °F 73.4 °F 54% 29.87 in 10.0 mi SE 8.1 mph 18.4 mph N/A   Scattered Clouds
7:35 PM 90.9 °F 99.4 °F 73.2 °F 56% 29.88 in 10.0 mi ESE 9.2 mph - N/A   Clear
7:55 PM 89.8 °F 97.5 °F 72.9 °F 57% 29.88 in 10.0 mi SE 6.9 mph - N/A   Clear
8:15 PM 89.2 °F 97.4 °F 73.4 °F 59% 29.89 in 10.0 mi SE 4.6 mph - N/A   Clear
8:35 PM 88.3 °F 96.4 °F 73.4 °F 61% 29.90 in 10.0 mi SSE 5.8 mph - N/A   Clear
8:55 PM 87.8 °F 96.1 °F 73.8 °F 63% 29.91 in 10.0 mi SSE 5.8 mph - N/A   Clear
9:15 PM 86.9 °F 95.4 °F 74.3 °F 66% 29.91 in 10.0 mi SE 4.6 mph - N/A   Clear
9:35 PM 86.2 °F 94.6 °F 74.3 °F 68% 29.92 in 10.0 mi SE 3.5 mph - N/A   Clear
9:55 PM 85.3 °F 93.4 °F 74.5 °F 70% 29.93 in 10.0 mi SE 5.8 mph - N/A   Clear
10:15 PM 84.4 °F 91.7 °F 74.1 °F 71% 29.93 in 10.0 mi SE 3.5 mph - N/A   Clear
10:35 PM 83.8 °F 90.8 °F 73.9 °F 72% 29.93 in 10.0 mi SE 4.6 mph - N/A   Clear
10:55 PM 83.5 °F 90.6 °F 74.3 °F 74% 29.94 in 10.0 mi SSE 4.6 mph - N/A   Clear
11:15 PM 82.8 °F 89.5 °F 74.7 °F 76% 29.93 in 10.0 mi SSE 3.5 mph - N/A   Clear
11:35 PM 82.4 °F 89.5 °F 75.2 °F 79% 29.94 in 10.0 mi SSE 3.5 mph - N/A   Clear
11:55 PM 81.5 °F 88.0 °F 75.4 °F 82% 29.94 in 10.0 mi SSE 3.5 mph - N/A   Clear